RH
18 11 10 12 12 18 26 29 30 31 32 27 18 32 65 85 92 68 76 100 98 100 97 79 96 98 95 84 80 80 94 93 88 73 78 86 93 96 96 96 95 96 93 97
32 15 12 13 15 14 22 29 32 36 33 24 21 44 77 80 46 41 70 92 98 94 90 88 98 86 60 44 38 49 68 96 92 91 92 98 99 99 97 96 96 96 96 97
38 29 12 15 16 15 17 28 41 42 36 27 23 30 34 36 40 71 99 100 84 31 28 52 48 34 50 68 86 92 96 88 90 97 96 96 98 95 96 97 96 96 96 96
46 41 27 12 19 18 24 33 47 47 36 26 24 26 32 25 24 54 80 46 20 21 30 33 40 65 53 52 60 75 90 89 100 98 97 98 97 90 86 93 97 97 93 94
53 48 44 17 17 20 24 39 51 50 33 26 20 17 16 14 15 27 18 23 21 26 33 62 67 64 58 62 53 59 77 83 89 100 96 99 98 100 100 98 97 98 95 95
62 62 56 28 19 24 25 43 48 54 34 26 16 13 11 11 14 22 23 24 28 26 21 67 85 82 56 65 58 56 82 79 79 92 93 100 94 94 84 88 96 97 97 96
69 66 57 16 23 29 29 43 51 57 34 24 12 10 10 15 16 16 17 21 21 21 22 55 95 51 75 63 77 50 61 68 65 78 70 97 93 96 92 74 66 79 87 90
76 67 46 20 24 34 31 43 54 61 32 23 13 8 13 15 16 14 14 15 15 15 20 41 55 49 48 50 46 48 34 36 67 75 99 100 99 92 79 75 58 60 78 88
74 69 64 34 28 37 39 44 57 64 35 25 16 8 11 16 16 15 13 12 14 15 16 19 32 51 51 39 47 53 36 37 32 52 95 98 83 71 73 68 75 82 100 99
75 71 66 52 35 39 45 50 61 68 33 26 19 9 10 15 17 17 14 14 14 16 19 22 24 30 38 44 40 35 43 47 53 60 64 79 63 68 74 79 77 78 85 81
72 66 55 50 41 38 38 47 62 70 38 29 22 9 10 13 14 16 18 16 18 16 20 24 30 35 38 44 43 49 52 56 58 66 74 68 67 84 98 95 95 99 100 100
51 43 40 36 37 33 34 46 64 70 42 31 24 19 29 20 16 16 16 19 20 22 20 24 27 31 38 40 46 46 55 57 66 68 67 63 86 100 100 100 100 100 97 65
41 41 35 32 31 29 32 48 66 61 45 34 28 30 39 36 27 22 30 27 40 44 34 36 35 31 35 39 37 43 47 59 71 80 68 90 96 100 100 100 96 46 33 40
37 41 33 25 24 26 36 53 65 59 53 39 33 27 49 48 51 56 63 70 78 84 86 82 55 45 40 37 36 33 41 49 58 69 74 91 98 100 99 99 36 23 29 31
32 32 30 25 25 27 34 57 61 63 59 44 37 32 47 70 57 71 76 80 87 96 100 100 100 90 67 49 44 27 28 43 54 63 78 94 86 95 98 72 18 19 18 17
31 27 27 28 23 33 46 45 61 52 47 41 43 43 35 63 71 85 91 96 98 100 100 100 100 100 92 69 49 34 39 48 60 75 94 93 100 100 88 16 16 15 14 14
28 26 29 30 22 35 51 66 51 40 38 42 47 42 42 53 73 91 93 99 100 100 100 100 100 100 100 90 44 47 51 56 78 99 100 98 96 86 16 17 18 16 15 15
24 21 30 28 24 40 51 54 41 39 52 52 51 54 59 60 80 98 95 93 99 94 89 81 85 87 82 56 54 58 59 78 86 93 99 98 83 17 18 20 20 19 18 16
18 23 31 29 26 41 51 50 42 50 57 56 60 69 72 81 93 94 95 94 100 91 75 71 71 67 52 53 58 61 85 83 87 100 100 66 16 18 22 23 23 22 21 18
24 25 29 33 34 47 57 43 53 64 67 68 72 83 95 98 96 97 98 100 96 91 70 61 53 41 48 81 80 85 88 94 98 98 65 14 17 22 25 26 25 25 23 21
17 22 30 34 43 57 54 51 69 74 78 82 89 96 98 98 99 100 96 97 93 86 67 58 54 42 60 82 96 96 94 100 100 98 48 15 19 25 28 28 28 27 25 24
20 33 29 40 62 71 62 77 80 85 92 95 96 95 97 97 97 99 99 100 95 72 56 53 40 49 65 76 94 99 100 100 100 99 31 16 22 28 31 31 30 29 27 26
19 28 49 57 76 76 83 87 95 96 97 97 98 98 98 96 98 99 100 95 88 66 68 43 59 98 98 98 99 100 100 100 99 90 19 19 26 31 34 34 32 31 29 28
35 47 65 70 76 79 96 97 98 98 100 98 98 99 99 100 100 98 100 100 88 77 49 50 98 96 97 99 100 100 100 100 100 37 18 24 30 35 37 36 35 33 31 30
53 61 71 70 76 93 97 96 97 97 99 98 97 95 93 100 100 98 97 97 88 74 77 99 98 99 100 100 100 100 100 100 47 18 22 29 35 40 40 39 37 35 33 32
51 59 62 71 80 92 97 97 97 98 100 97 95 97 95 98 96 96 97 96 87 96 99 99 99 98 99 100 100 100 77 23 18 21 29 35 41 44 44 42 39 37 36 35
62 70 74 82 90 96 98 97 97 100 98 98 98 97 95 97 98 95 96 96 98 99 99 98 99 100 100 99 60 21 17 19 23 30 36 41 47 48 47 44 42 40 38 37
Wind_Speed
38 37 37 38 36 32 30 28 24 27 22 20 24 15 10 10 14 17 11 7 10 8 13 10 5 4 9 20 19 21 11 7 11 16 17 15 18 17 14 6 3 5 2 3
37 36 35 36 37 37 36 32 29 31 27 22 24 17 10 15 16 12 8 6 8 12 11 6 8 12 16 23 25 10 15 4 8 6 8 6 7 10 15 14 6 4 3 5
38 37 35 35 37 37 35 32 29 30 29 25 25 22 16 14 13 11 9 9 13 15 9 9 6 9 15 12 8 5 9 10 8 5 6 9 5 9 8 4 3 2 3 2
41 41 41 36 37 38 36 32 29 30 27 24 27 21 19 18 10 8 9 9 12 12 9 8 6 8 12 15 14 7 5 5 7 8 10 3 2 4 4 5 6 4 5 10
40 42 44 43 37 39 36 34 31 29 23 21 23 20 18 15 14 12 13 9 8 10 12 10 4 8 12 15 12 8 7 2 3 7 2 8 9 10 6 4 6 3 2 5
39 41 44 44 39 40 38 36 34 30 25 22 23 24 16 14 14 13 14 11 7 5 7 6 4 4 9 13 14 12 9 6 4 2 4 2 3 15 18 13 11 6 5 9
39 41 44 42 38 39 39 36 33 29 23 20 22 18 12 12 11 13 11 9 7 7 6 1 1 5 3 7 10 14 11 8 7 4 5 3 4 8 15 20 16 12 15 20
38 40 43 42 36 36 37 35 31 28 22 17 22 14 10 12 10 12 9 9 9 9 6 1 5 4 3 1 8 8 11 9 3 4 3 3 5 12 21 23 26 18 17 19
37 38 40 41 36 36 38 35 30 27 20 16 21 11 8 9 10 11 9 7 7 8 7 3 3 4 3 3 3 7 10 5 6 3 1 4 6 21 22 21 14 10 13 22
38 38 39 40 36 37 38 36 30 26 16 13 21 13 7 8 9 10 8 5 5 6 7 6 3 2 3 4 6 8 9 6 9 5 2 1 14 22 24 9 12 32 32 32
37 38 39 38 37 37 38 36 28 26 15 11 18 13 11 10 10 10 11 7 10 7 6 4 4 3 4 6 8 7 5 6 4 4 2 4 15 24 18 27 31 33 36 39
36 37 39 39 37 37 38 37 27 26 13 11 14 12 15 13 12 11 13 11 12 9 8 9 5 8 7 8 4 6 4 5 6 5 11 14 19 27 25 35 40 42 41 38
36 39 41 40 39 37 38 36 27 23 13 9 11 10 16 15 13 14 17 15 17 17 16 15 12 12 12 10 10 11 11 12 15 18 18 26 28 27 34 42 48 39 33 32
38 40 42 42 39 37 38 31 28 18 15 9 12 6 14 13 14 15 16 18 20 20 19 18 18 17 14 16 16 20 18 17 20 26 28 29 27 33 38 49 43 34 29 29
40 42 42 40 39 38 35 27 26 18 13 14 14 8 9 18 14 21 22 25 25 24 25 23 20 20 19 23 25 26 20 18 20 25 29 29 32 36 41 50 36 32 31 30
41 42 42 40 40 37 27 31 21 20 16 15 13 13 9 16 16 24 27 28 29 28 27 24 21 16 14 13 18 21 22 24 24 26 26 31 33 38 46 35 32 30 30 31
44 42 40 38 37 31 28 20 18 16 14 15 12 8 9 16 20 29 31 33 30 25 22 17 13 12 15 21 22 17 18 20 21 25 29 33 38 43 33 31 32 33 31 30
44 43 40 38 34 28 26 18 16 13 17 11 7 11 17 22 24 33 34 35 28 19 11 12 11 8 8 6 7 13 15 18 23 28 33 38 40 32 30 31 31 29 29 27
44 43 42 36 28 31 24 16 14 14 13 8 8 15 19 27 33 35 38 32 20 12 11 9 8 6 5 5 11 11 15 20 24 29 37 37 30 28 28 29 29 29 27 27
43 43 39 33 32 26 18 12 11 11 12 11 10 18 23 30 31 33 30 14 9 8 7 10 8 8 3 7 8 14 20 24 28 35 35 29 25 26 27 29 30 30 29 27
42 40 35 29 24 18 8 6 10 11 11 10 20 29 30 30 32 30 12 11 8 4 4 7 5 5 7 14 20 27 26 27 33 38 35 29 28 28 27 27 27 27 27 27
36 32 29 20 10 5 4 7 13 10 9 24 29 31 32 33 28 15 9 8 5 4 6 5 3 9 19 26 29 30 29 32 36 38 33 28 27 27 27 27 27 26 26 26
36 30 12 8 5 5 4 11 18 20 26 30 30 30 33 25 20 10 7 4 5 9 4 3 3 23 26 27 28 29 34 37 37 36 30 26 26 27 27 26 26 26 25 25
32 16 9 4 4 6 19 24 25 26 29 30 30 30 26 26 15 7 6 6 6 4 4 3 21 32 32 30 30 31 35 35 36 31 26 25 25 25 26 26 26 25 24 24
24 10 5 4 13 21 25 25 25 26 28 29 29 29 23 16 8 5 6 4 4 5 7 24 32 34 35 32 31 33 33 35 31 26 25 25 25 24 24 25 25 25 24 24
12 5 16 18 20 21 26 25 24 25 26 27 27 21 9 5 5 5 5 4 7 14 24 32 35 37 36 33 32 34 32 28 25 24 24 24 24 24 24 25 24 24 24 23
12 19 17 18 22 26 26 24 23 25 26 24 22 7 5 8 6 5 5 10 21 26 30 34 38 36 34 33 32 29 26 25 24 24 24 24 24 24 24 23 23 23 23 23
Wind_Direction
11 7 4 2 1 3 358 1 0 357 354 348 5 3 350 328 315 320 312 308 322 325 335 341 343 10 338 329 320 323 331 298 279 289 279 268 269 267 248 227 224 218 174 115
12 6 3 4 1 359 358 0 0 360 358 2 5 0 332 325 327 341 340 325 330 337 335 335 304 309 320 314 310 295 293 269 319 295 272 332 286 271 258 245 272 222 197 154
7 6 2 1 3 0 360 1 4 355 357 2 358 355 350 353 341 339 352 332 328 327 333 330 311 357 16 13 5 322 271 269 261 309 322 352 37 27 8 298 295 329 296 261
359 1 2 1 1 2 3 6 4 0 355 358 356 357 352 346 359 348 341 328 354 8 3 359 17 34 38 37 24 351 286 284 285 284 294 266 359 30 340 314 297 288 277 263
355 357 359 358 0 2 1 6 4 359 360 357 354 356 354 0 4 2 2 8 1 357 3 2 33 46 22 19 26 24 14 316 347 56 57 175 91 58 55 32 38 37 355 310
351 354 355 355 356 360 1 2 359 360 2 358 358 356 4 4 1 359 355 355 342 323 345 2 108 62 26 12 7 3 359 353 9 66 345 252 345 30 26 15 349 281 279 311
349 351 352 356 355 356 358 359 357 358 357 358 358 357 5 1 355 357 359 7 12 2 348 352 220 348 329 15 358 15 10 357 9 344 358 26 174 352 354 347 344 322 295 291
348 350 352 354 353 353 354 356 355 355 354 358 358 356 358 2 355 1 15 24 31 26 12 317 280 303 172 309 3 11 19 18 347 13 47 147 273 346 346 337 318 309 287 288
347 350 351 352 351 351 351 354 353 353 351 353 358 356 350 358 2 360 13 26 26 24 20 359 16 32 350 343 316 340 346 6 18 15 149 203 14 343 339 328 305 298 295 294
344 347 347 351 349 347 346 350 350 350 349 349 357 355 342 346 357 6 5 354 340 349 347 356 357 350 337 327 320 337 1 5 16 12 293 204 4 356 355 340 315 312 311 309
341 343 344 348 347 343 343 346 346 346 343 344 354 360 344 332 338 345 349 343 347 322 332 321 332 300 303 318 315 320 327 342 332 323 289 275 318 339 331 325 320 316 311 306
343 342 343 345 344 341 339 343 342 343 337 341 356 5 357 344 337 341 341 337 333 323 311 306 290 290 279 295 293 304 295 306 287 274 295 288 300 324 322 328 323 318 311 307
341 338 339 340 340 338 336 342 343 340 333 335 354 7 7 5 348 338 337 332 326 322 310 297 280 265 268 270 283 287 293 294 281 299 318 308 304 311 320 327 324 319 314 312
338 335 336 338 338 336 335 343 345 340 328 326 344 336 10 4 9 356 346 340 335 330 318 307 282 273 273 268 275 288 291 287 302 310 321 316 305 305 311 319 323 318 315 314
335 333 336 339 336 334 338 344 343 339 330 313 327 311 338 1 336 347 341 336 327 322 316 311 304 281 275 278 279 281 297 288 286 299 311 314 314 308 310 319 319 319 318 315
332 332 335 337 335 336 340 343 345 336 329 320 329 319 292 342 338 341 335 331 323 314 306 305 297 295 268 269 273 298 301 303 301 306 318 317 305 308 314 317 321 324 323 320
329 331 332 335 334 334 340 336 333 337 334 322 320 316 313 323 330 332 332 329 323 316 305 300 294 288 262 266 283 313 315 310 316 321 313 307 312 318 322 326 327 328 327 325
326 328 331 337 332 332 341 337 337 334 332 327 315 321 320 323 324 329 333 331 326 326 316 312 310 295 270 263 336 332 328 327 323 316 311 312 319 321 327 328 328 326 325 325
326 326 331 332 330 333 333 329 331 327 331 310 310 320 322 325 328 332 335 329 322 317 319 316 311 282 259 305 324 326 321 326 325 323 320 320 321 325 328 327 327 328 329 329
326 327 333 334 330 321 321 327 336 325 328 321 330 331 321 326 329 327 328 309 310 309 313 322 304 302 324 342 328 329 333 333 329 328 329 324 324 327 330 331 331 331 331 333
329 331 330 324 323 320 317 332 349 331 320 320 326 329 327 325 326 322 315 299 293 286 300 315 293 328 288 316 329 336 333 329 325 330 330 327 327 328 331 330 330 330 331 332
333 331 326 321 324 322 325 346 339 325 316 318 323 325 324 323 324 316 300 285 271 268 296 277 285 340 322 318 317 325 326 323 326 329 328 326 325 326 329 330 332 331 331 332
333 335 324 325 322 326 329 317 323 325 321 322 321 324 323 319 320 298 279 265 259 296 262 262 329 334 334 329 325 316 319 322 324 327 325 324 324 325 327 330 331 330 331 331
339 326 315 309 333 325 319 320 319 318 317 323 322 321 315 310 304 278 273 269 294 270 261 290 323 331 332 329 322 316 318 321 323 324 323 323 324 325 327 329 329 331 331 333
333 315 305 309 321 327 322 319 317 315 318 320 322 321 318 300 269 275 281 274 265 263 284 325 328 328 326 324 320 319 319 320 322 323 322 322 324 326 329 329 330 330 332 336
331 321 314 312 314 324 324 324 319 315 319 324 325 321 300 289 270 267 257 271 295 307 316 322 324 324 325 323 321 319 320 322 323 323 323 325 326 329 331 329 329 332 335 335
317 315 331 316 316 311 325 328 327 325 326 327 325 309 283 293 272 268 260 293 315 315 320 323 325 324 323 321 322 324 324 325 324 324 327 328 329 330 330 332 331 330 332 334